Punta Gorda, FL

2:50 PM EDT on July 27, 2017 (GMT -0400)
Charlotte County

Weather History for KPGD - October, 2012

Change the Weather History Date:

Tuesday, October 30, 2012

  Actual Average Record
Temperature  
Mean Temperature 61 °F -  
Max Temperature 71 °F 81 °F 88 °F (1996)
Min Temperature 51 °F 61 °F 44 °F (2008)
Degree Days  
Heating Degree Days 4    
Growing Degree Days 11 (Base 50)    
Moisture  
Dew Point 46 °F    
Average Humidity 55    
Maximum Humidity 71    
Minimum Humidity 35    
Precipitation  
Precipitation 0.00 in - - ()
Sea Level Pressure  
Sea Level Pressure 29.95 in    
Wind  
Wind Speed 9 mph (NW)    
Max Wind Speed 22 mph    
Max Gust Speed 31 mph    
Visibility 10 miles    
Events      
Averages and records for this station are not official NWS values.
T = Trace of Precipitation, MM = Missing Value Source: NWS Daily Summary

Daily Weather History Graph

Daily Weather History Graph

Search for Another Location

Airport or City:

Trip Planner

Search our weather history database for the weather conditions in past years. The results will help you decide how hot, cold, wet, or windy it might be!

Date:

Astronomy

Oct. 30, 2012 Rise Set
Actual Time 7:36 AM EDT 6:46 PM EDT
Civil Twilight 7:12 AM EDT 7:09 PM EDT
Nautical Twilight 6:45 AM EDT 7:37 PM EDT
Astronomical Twilight 6:18 AM EDT 8:04 PM EDT
Moon 7:22 PM EDT (10/30) 8:15 AM EDT (10/30)
Length of Visible Light 11h 57m
Length of Day
11h 09m
Full, 99% of the Moon is Illuminated
Oct 30
Full
Nov 6
Last Quarter
Nov 13
New
Nov 20
First Quarter
Nov 28
Full

Hourly Weather History & Observations

Time (EDT) Temp. Dew Point Humidity Pressure Visibility Wind Dir Wind Speed Gust Speed Precip Events Conditions
12:53 AM 60.1 °F 48.0 °F 64% 29.89 in 10.0 mi NW 5.8 mph - N/A   Partly Cloudy
1:53 AM 61.0 °F 48.0 °F 62% 29.88 in 10.0 mi NW 8.1 mph - N/A   Clear
2:53 AM 60.1 °F 48.9 °F 67% 29.87 in 10.0 mi NW 6.9 mph - N/A   Partly Cloudy
3:53 AM 60.1 °F 46.9 °F 62% 29.89 in 10.0 mi North 13.8 mph 19.6 mph N/A   Scattered Clouds
4:53 AM 55.9 °F 45.0 °F 67% 29.91 in 10.0 mi NNE 6.9 mph - N/A   Overcast
5:53 AM 54.0 °F 43.0 °F 66% 29.92 in 10.0 mi NE 6.9 mph - N/A   Overcast
6:53 AM 53.1 °F 41.0 °F 64% 29.93 in 10.0 mi NE 6.9 mph - N/A   Mostly Cloudy
7:53 AM 51.1 °F 42.1 °F 71% 29.96 in 10.0 mi NE 3.5 mph - N/A   Scattered Clouds
8:53 AM 57.0 °F 39.9 °F 53% 29.98 in 10.0 mi Calm Calm - N/A   Clear
9:53 AM 62.1 °F 44.1 °F 52% 29.98 in 10.0 mi Calm Calm - N/A   Clear
10:53 AM 68.0 °F 46.0 °F 45% 29.98 in 10.0 mi WNW 17.3 mph 25.3 mph N/A   Partly Cloudy
11:53 AM 70.0 °F 43.0 °F 38% 29.98 in 10.0 mi NW 16.1 mph 26.5 mph N/A   Partly Cloudy
12:53 PM 71.1 °F 42.1 °F 35% 29.97 in 10.0 mi WNW 20.7 mph 28.8 mph N/A   Clear
1:53 PM 71.1 °F 43.0 °F 36% 29.95 in 10.0 mi WNW 17.3 mph 31.1 mph N/A   Clear
2:53 PM 71.1 °F 43.0 °F 36% 29.95 in 10.0 mi NW 21.9 mph 27.6 mph N/A   Clear
3:53 PM 71.1 °F 45.0 °F 39% 29.94 in 10.0 mi NW 21.9 mph 26.5 mph N/A   Clear
4:53 PM 69.1 °F 45.0 °F 42% 29.94 in 10.0 mi WNW 16.1 mph - N/A   Clear
5:53 PM 68.0 °F 46.9 °F 47% 29.94 in 10.0 mi WNW 15.0 mph 23.0 mph N/A   Clear
6:53 PM 64.9 °F 46.9 °F 52% 29.96 in 10.0 mi WNW 13.8 mph - N/A   Clear
8:53 PM 62.1 °F 50.0 °F 65% 29.99 in 10.0 mi WNW 6.9 mph - N/A   Clear
9:53 PM 63.0 °F 50.0 °F 63% 30.01 in 10.0 mi WNW 5.8 mph - N/A   Clear
10:53 PM 62.1 °F 50.0 °F 65% 30.02 in 10.0 mi North - - N/A   Clear
11:53 PM 61.0 °F 50.0 °F 67% 30.02 in 10.0 mi NW 4.6 mph - N/A   Clear